Wind_Speed
13 13 12 12 11 12 12 11 11 12 12 13 12 12 12 12 13 13 13 13 13 14 14 14 14 14 14 14 13 14 14 14 14 15 15 16 17 17
13 13 13 13 13 13 12 13 13 13 13 13 13 14 13 13 13 13 13 13 14 15 15 15 15 16 15 15 15 15 15 15 15 16 16 16 17 17
15 14 14 14 15 14 14 14 14 14 14 14 14 14 14 14 14 14 14 14 14 15 16 16 16 16 16 16 16 17 17 18 18 18 18 17 17 18
17 16 16 16 16 16 16 16 16 16 15 15 15 15 15 15 16 16 16 16 16 16 17 17 17 17 18 18 18 19 19 19 20 19 19 19 20 20
18 18 17 17 17 17 17 17 18 18 17 17 17 17 17 17 17 18 18 18 18 18 18 18 19 19 19 19 20 20 20 21 21 21 21 21 21 21
20 19 19 19 19 19 19 19 19 19 19 18 18 18 18 18 18 18 19 19 20 20 20 20 20 20 21 21 21 21 22 22 22 21 21 21 21 22
22 21 21 21 20 21 21 20 20 20 20 20 20 20 20 20 20 20 20 21 21 20 20 20 21 21 22 22 22 22 22 22 22 22 22 22 23 23
25 24 24 23 22 22 22 22 22 22 22 21 21 22 22 22 22 21 22 22 22 22 22 22 22 22 23 23 23 23 23 23 23 23 23 23 23 24
26 26 27 26 25 24 24 24 24 24 24 24 23 24 23 23 23 23 23 23 23 23 23 23 24 24 24 24 24 24 25 25 24 24 23 24 24 24
29 28 28 28 27 26 26 26 26 26 26 25 25 25 25 25 25 25 25 25 25 25 25 25 25 25 25 25 25 25 25 25 25 25 25 25 25 25
30 30 29 29 29 28 27 27 27 27 27 27 27 27 27 27 27 27 26 26 26 26 26 26 26 26 26 26 26 26 26 25 25 26 26 26 26 26
31 30 30 30 30 29 29 28 28 29 29 29 29 29 29 29 29 28 28 28 28 28 28 28 27 27 27 27 26 26 26 26 26 27 27 27 27 27
32 32 32 32 31 31 31 30 29 29 30 30 30 30 31 30 30 30 30 30 30 30 30 29 29 28 28 27 28 27 27 28 28 28 28 28 29 28
32 32 32 32 32 32 32 31 31 31 31 31 31 31 31 32 31 31 31 31 31 31 31 30 29 29 29 29 29 29 29 29 29 29 29 29 30 29
33 33 33 33 33 33 32 32 32 33 33 33 32 32 32 32 32 32 32 32 31 31 31 31 30 30 30 29 29 29 30 30 30 30 30 30 30 30
34 34 33 33 34 34 34 34 34 35 35 35 35 34 34 33 33 33 33 33 32 32 32 31 31 31 31 31 30 30 31 31 31 31 31 31 31 31
35 35 35 35 35 35 35 35 35 35 35 35 35 34 34 34 34 34 34 34 33 33 33 32 32 32 32 32 31 32 32 32 32 31 31 31 32 32
37 36 36 36 36 36 36 36 36 35 35 35 35 35 35 35 35 35 35 35 34 33 33 33 33 33 33 32 32 32 32 32 33 32 31 31 32 32
38 38 38 37 37 37 37 36 36 36 36 36 36 36 36 36 36 36 36 36 35 34 34 34 33 34 34 33 33 33 33 33 33 33 32 32 32 32
38 38 38 38 38 38 37 37 37 37 37 37 37 37 37 36 36 36 36 35 35 35 35 35 34 35 35 35 34 34 34 34 34 34 33 33 32 32
39 39 38 38 38 38 38 38 38 38 38 38 38 38 38 37 37 37 37 36 36 35 36 36 36 36 36 36 36 35 35 35 35 35 34 34 33 33
40 39 39 39 39 39 39 39 39 39 39 39 38 38 38 38 38 38 37 37 37 36 36 37 37 37 37 36 36 36 36 36 36 36 35 35 35 34
38 38 38 38 38 39 39 40 39 39 39 39 38 38 38 39 39 38 38 38 38 38 38 37 37 38 38 38 38 37 37 37 37 37 36 36 36 35
Wind_Direction
286 289 288 287 285 285 285 285 285 286 286 285 283 283 284 281 278 273 271 269 268 267 268 271 272 273 275 275 276 277 278 277 277 277 277 277 273 271
285 285 283 282 282 282 283 283 283 284 285 283 280 280 282 283 280 277 277 273 271 270 268 270 272 272 273 274 276 277 278 277 277 277 278 279 278 275
282 284 285 283 282 281 282 281 281 281 283 282 279 278 278 280 279 278 278 278 277 275 272 271 270 271 272 273 274 276 277 277 277 277 277 278 277 275
281 284 285 284 284 281 280 279 279 280 282 281 281 278 277 278 278 278 278 277 277 277 276 274 273 272 273 273 274 275 276 277 277 277 277 276 275 277
279 282 283 284 284 281 278 278 278 279 281 280 280 278 277 278 278 278 278 278 277 277 278 278 276 276 276 275 275 276 277 278 278 277 277 277 277 277
277 279 281 282 283 282 280 278 278 279 279 280 278 277 276 276 276 277 277 278 278 277 278 279 279 278 277 278 278 279 279 279 279 278 278 279 279 279
275 277 278 281 282 282 280 278 278 278 278 279 279 276 276 276 276 277 279 280 279 279 279 281 282 280 278 278 279 279 278 279 279 279 279 280 280 279
273 273 276 277 279 280 278 277 278 278 278 278 279 279 278 277 276 277 278 279 280 280 279 279 280 281 280 279 279 277 278 278 279 280 281 282 282 282
272 272 273 274 275 277 277 276 276 277 277 278 278 279 279 277 276 277 278 278 278 280 280 280 280 280 280 280 279 277 277 278 277 278 280 282 282 282
270 270 271 272 273 274 275 275 274 274 275 276 276 276 276 276 276 276 276 277 278 279 279 279 279 279 279 279 278 277 277 277 277 278 279 281 283 283
268 269 270 272 272 272 273 274 274 273 274 274 275 275 275 275 274 274 276 276 277 279 279 279 279 278 279 279 277 277 276 276 277 278 279 281 282 283
269 269 270 271 272 272 273 274 274 274 274 275 275 275 275 275 275 275 276 276 277 278 279 279 278 279 278 277 276 275 275 277 278 279 280 281 283 284
270 270 269 269 271 272 273 275 274 273 273 274 275 275 275 275 275 276 276 276 277 277 277 277 278 278 277 275 275 275 274 276 278 279 280 281 282 283
271 270 270 270 271 272 273 274 274 274 274 275 275 275 276 275 275 275 276 275 275 275 275 276 276 276 276 275 275 275 275 275 277 278 280 280 281 282
271 271 270 270 271 272 273 273 273 273 273 273 274 274 275 275 275 274 274 275 274 274 274 274 275 276 276 275 275 275 275 276 276 277 279 280 280 281
271 270 270 270 271 271 272 273 274 274 274 273 273 273 273 273 274 274 273 274 274 273 273 273 274 275 275 274 274 275 275 275 275 276 279 279 280 281
270 270 269 270 271 272 273 273 273 274 274 273 272 272 273 273 273 273 273 273 273 273 273 273 273 274 274 274 274 275 275 275 275 276 277 278 279 280
271 271 270 269 270 271 271 272 272 273 273 273 273 273 273 273 273 273 274 273 273 272 272 273 273 273 273 274 275 275 275 274 274 275 277 277 277 278
272 272 271 270 269 270 270 270 270 271 273 273 272 271 272 272 272 273 273 273 272 272 271 272 272 273 273 274 275 274 275 274 274 275 278 278 278 278
273 273 271 270 269 269 269 269 269 270 271 272 272 272 271 271 272 272 271 271 271 271 271 271 271 271 271 272 273 274 274 274 274 275 277 277 277 278
273 273 271 270 269 268 268 268 269 270 272 273 273 272 271 270 270 271 271 270 270 270 270 270 270 270 271 272 273 273 273 273 273 274 275 275 276 276
272 271 270 269 269 269 268 268 269 270 271 272 272 271 270 271 270 270 270 270 269 269 269 269 270 271 272 272 273 273 273 273 273 274 275 276 276 276
273 271 271 270 270 269 269 268 268 269 271 271 271 270 270 271 270 269 269 268 267 268 268 269 270 271 272 272 273 273 272 272 272 273 274 275 275 275
Height
5816 5815 5814 5813 5813 5812 5812 5811 5811 5811 5810 5809 5809 5808 5807 5807 5806 5806 5806 5806 5806 5806 5807 5807 5807 5807 5806 5806 5806 5806 5806 5806 5806 5806 5806 5805 5805 5805
5813 5812 5811 5810 5810 5809 5809 5808 5808 5807 5807 5806 5805 5805 5804 5803 5803 5803 5802 5802 5802 5802 5803 5803 5803 5803 5803 5803 5803 5803 5803 5802 5802 5802 5801 5801 5800 5800
5809 5809 5808 5807 5806 5806 5805 5805 5804 5804 5803 5802 5802 5801 5801 5800 5799 5799 5799 5799 5798 5798 5798 5798 5798 5798 5798 5798 5798 5798 5798 5798 5798 5797 5797 5796 5795 5795
5805 5805 5804 5803 5802 5802 5801 5801 5800 5800 5799 5799 5798 5797 5797 5796 5796 5795 5795 5795 5794 5794 5794 5794 5794 5793 5793 5793 5793 5793 5793 5792 5792 5792 5791 5791 5790 5789
5801 5800 5800 5799 5798 5797 5797 5796 5796 5795 5795 5794 5793 5793 5792 5792 5792 5791 5790 5790 5789 5789 5789 5788 5788 5788 5788 5788 5787 5787 5787 5787 5786 5786 5785 5785 5784 5783
5796 5795 5795 5794 5793 5793 5792 5792 5791 5790 5790 5789 5789 5788 5788 5787 5787 5786 5786 5785 5784 5784 5783 5783 5782 5782 5782 5782 5782 5781 5781 5780 5780 5779 5779 5778 5778 5777
5790 5790 5789 5789 5788 5787 5787 5786 5785 5785 5784 5784 5783 5783 5782 5782 5781 5781 5780 5780 5779 5778 5778 5777 5777 5776 5776 5776 5775 5775 5774 5774 5773 5773 5772 5772 5771 5770
5784 5783 5783 5782 5782 5781 5781 5780 5780 5779 5779 5778 5778 5777 5776 5776 5775 5775 5774 5774 5773 5773 5772 5771 5770 5770 5769 5769 5768 5768 5767 5767 5767 5766 5765 5765 5764 5763
5776 5776 5776 5775 5775 5775 5774 5774 5773 5773 5773 5772 5772 5771 5770 5769 5769 5768 5768 5767 5767 5766 5766 5765 5764 5763 5762 5762 5761 5761 5760 5760 5759 5759 5758 5758 5757 5756
5768 5768 5768 5768 5767 5767 5767 5766 5766 5766 5765 5765 5764 5764 5763 5762 5762 5762 5761 5761 5760 5759 5759 5758 5757 5756 5755 5755 5754 5753 5753 5753 5752 5752 5751 5750 5749 5748
5759 5759 5759 5759 5759 5759 5759 5759 5758 5758 5757 5757 5757 5756 5755 5755 5754 5754 5754 5753 5753 5752 5751 5751 5750 5749 5748 5748 5747 5746 5746 5745 5745 5744 5743 5742 5742 5740
5750 5750 5750 5750 5750 5750 5750 5750 5750 5750 5749 5749 5748 5748 5747 5747 5746 5746 5745 5745 5744 5744 5743 5742 5742 5741 5741 5740 5739 5739 5738 5738 5737 5736 5735 5734 5733 5732
5740 5741 5741 5741 5741 5741 5741 5741 5741 5741 5740 5740 5740 5739 5738 5738 5737 5737 5736 5736 5736 5735 5734 5734 5733 5732 5732 5732 5731 5731 5730 5730 5729 5728 5727 5726 5725 5724
5730 5731 5731 5731 5731 5731 5731 5731 5731 5731 5731 5730 5730 5730 5729 5729 5728 5727 5727 5726 5726 5726 5725 5724 5724 5723 5723 5723 5723 5722 5721 5721 5720 5719 5718 5717 5716 5715
5721 5721 5721 5721 5721 5721 5721 5721 5721 5721 5720 5720 5720 5720 5719 5719 5718 5717 5717 5716 5716 5715 5715 5715 5714 5714 5713 5713 5713 5712 5712 5711 5710 5710 5709 5708 5707 5706
5710 5710 5710 5711 5711 5711 5711 5710 5710 5710 5710 5710 5710 5709 5709 5708 5707 5707 5706 5706 5706 5706 5705 5705 5704 5704 5704 5703 5703 5703 5702 5701 5701 5700 5699 5698 5697 5696
5699 5700 5700 5700 5700 5700 5699 5699 5699 5698 5698 5698 5698 5698 5698 5697 5696 5696 5696 5695 5695 5695 5695 5695 5694 5693 5693 5693 5693 5693 5692 5691 5691 5690 5689 5689 5688 5687
5688 5688 5688 5688 5688 5688 5688 5688 5687 5687 5687 5687 5687 5686 5686 5686 5685 5685 5684 5684 5684 5685 5684 5684 5684 5683 5683 5683 5683 5682 5682 5681 5680 5679 5679 5678 5678 5677
5676 5676 5676 5676 5676 5676 5676 5676 5676 5675 5675 5675 5675 5675 5674 5674 5674 5673 5673 5673 5673 5673 5673 5673 5673 5673 5672 5673 5673 5672 5671 5670 5669 5669 5669 5668 5668 5667
5663 5663 5663 5663 5663 5663 5663 5663 5663 5663 5663 5663 5663 5662 5662 5662 5662 5662 5661 5661 5661 5661 5661 5662 5662 5662 5661 5662 5662 5661 5660 5659 5659 5658 5658 5658 5657 5657
5651 5650 5650 5650 5650 5650 5650 5651 5651 5651 5651 5650 5650 5649 5649 5649 5649 5649 5649 5649 5649 5649 5649 5650 5650 5650 5649 5649 5650 5650 5649 5648 5647 5647 5647 5647 5647 5646
5638 5638 5637 5637 5637 5637 5637 5638 5638 5638 5638 5637 5637 5637 5636 5636 5636 5636 5636 5636 5637 5637 5637 5638 5638 5637 5638 5638 5638 5638 5638 5637 5636 5636 5635 5635 5635 5635
5625 5625 5624 5624 5624 5624 5624 5624 5624 5625 5624 5624 5624 5624 5624 5624 5624 5624 5624 5624 5624 5625 5625 5625 5625 5625 5625 5626 5626 5626 5626 5625 5625 5625 5625 5623 5623 5623